Time,TemperatureF,DewpointF,PressureIn,WindDirection,WindDirectionDegrees,WindSpeedMPH,WindSpeedGustMPH,Humidity,HourlyPrecipIn,Conditions,Clouds,dailyrainin,SoftwareType,DateUTC
2013-01-20 00:03:00,11.0,4.4,30.32,East,85,3.0,4.0,74,0.00,,,0.00,vanprod-2.5-rc3,2013-01-20 07:03:00,
2013-01-20 00:08:00,10.9,4.3,30.31,East,85,2.0,3.0,74,0.00,,,0.00,vanprod-2.5-rc3,2013-01-20 07:08:00,
2013-01-20 00:13:00,11.0,4.6,30.31,East,84,2.0,2.0,75,0.00,,,0.00,vanprod-2.5-rc3,2013-01-20 07:13:00,
2013-01-20 00:18:00,10.8,4.2,30.31,East,83,3.0,4.0,74,0.00,,,0.00,vanprod-2.5-rc3,2013-01-20 07:18:00,
2013-01-20 00:23:00,10.7,4.4,30.31,East,81,4.0,5.0,75,0.00,,,0.00,vanprod-2.5-rc3,2013-01-20 07:23:00,
2013-01-20 00:28:00,10.8,4.7,30.31,ENE,63,2.0,2.0,76,0.00,,,0.00,vanprod-2.5-rc3,2013-01-20 07:28:00,
2013-01-20 00:33:00,10.8,4.7,30.31,ENE,77,2.0,2.0,76,0.00,,,0.00,vanprod-2.5-rc3,2013-01-20 07:33:00,
2013-01-20 00:38:00,11.0,5.2,30.31,ENE,78,0.0,0.0,77,0.00,,,0.00,vanprod-2.5-rc3,2013-01-20 07:38:00,
2013-01-20 00:43:00,11.2,5.7,30.31,ENE,78,0.0,0.0,78,0.00,,,0.00,vanprod-2.5-rc3,2013-01-20 07:43:00,
2013-01-20 00:48:00,11.5,6.3,30.32,ENE,77,0.0,0.0,79,0.00,,,0.00,vanprod-2.5-rc3,2013-01-20 07:48:00,
2013-01-20 00:53:00,12.1,7.1,30.32,ENE,78,0.0,0.0,80,0.00,,,0.00,vanprod-2.5-rc3,2013-01-20 07:53:00,
2013-01-20 00:58:00,12.4,7.1,30.32,ENE,78,0.0,0.0,79,0.00,,,0.00,vanprod-2.5-rc3,2013-01-20 07:58:00,
2013-01-20 01:03:00,12.2,6.7,30.32,ENE,78,0.0,0.0,78,0.00,,,0.00,vanprod-2.5-rc3,2013-01-20 08:03:00,
2013-01-20 01:08:00,11.7,5.9,30.32,ENE,78,0.0,0.0,77,0.00,,,0.00,vanprod-2.5-rc3,2013-01-20 08:08:00,
2013-01-20 01:13:00,11.1,5.0,30.31,ENE,78,0.0,0.0,76,0.00,,,0.00,vanprod-2.5-rc3,2013-01-20 08:13:00,
2013-01-20 01:18:00,10.6,4.5,30.31,ENE,76,2.0,2.0,76,0.00,,,0.00,vanprod-2.5-rc3,2013-01-20 08:18:00,
2013-01-20 01:23:00,10.6,5.1,30.31,ENE,70,2.0,2.0,78,0.00,,,0.00,vanprod-2.5-rc3,2013-01-20 08:23:00,
2013-01-20 01:28:00,11.4,6.4,30.31,NE,47,3.0,3.0,80,0.00,,,0.00,vanprod-2.5-rc3,2013-01-20 08:28:00,
2013-01-20 01:33:00,12.2,6.9,30.32,NE,46,2.0,2.0,79,0.00,,,0.00,vanprod-2.5-rc3,2013-01-20 08:33:00,
2013-01-20 01:38:00,12.0,5.9,30.32,SSE,152,0.0,0.0,76,0.00,,,0.00,vanprod-2.5-rc3,2013-01-20 08:38:00,
2013-01-20 01:43:00,11.7,5.9,30.32,SSE,152,0.0,0.0,77,0.00,,,0.00,vanprod-2.5-rc3,2013-01-20 08:43:00,
2013-01-20 01:48:00,11.5,5.7,30.32,SSE,152,1.0,0.0,77,0.00,,,0.00,vanprod-2.5-rc3,2013-01-20 08:48:00,
2013-01-20 01:53:00,11.5,6.0,30.32,SSE,152,0.0,0.0,78,0.00,,,0.00,vanprod-2.5-rc3,2013-01-20 08:53:00,
2013-01-20 01:58:00,11.4,5.9,30.31,SSE,152,0.0,0.0,78,0.00,,,0.00,vanprod-2.5-rc3,2013-01-20 08:58:00,
2013-01-20 02:03:00,11.5,6.3,30.32,SSE,152,0.0,0.0,79,0.00,,,0.00,vanprod-2.5-rc3,2013-01-20 09:03:00,
2013-01-20 02:08:00,11.6,6.1,30.32,SSE,151,0.0,0.0,78,0.00,,,0.00,vanprod-2.5-rc3,2013-01-20 09:08:00,
2013-01-20 02:13:00,11.8,6.6,30.32,SSE,152,0.0,0.0,79,0.00,,,0.00,vanprod-2.5-rc3,2013-01-20 09:13:00,
2013-01-20 02:18:00,11.5,5.4,30.32,SE,126,0.0,0.0,76,0.00,,,0.00,vanprod-2.5-rc3,2013-01-20 09:18:00,
2013-01-20 02:23:00,11.0,4.6,30.32,ESE,105,0.0,0.0,75,0.00,,,0.00,vanprod-2.5-rc3,2013-01-20 09:23:00,
2013-01-20 02:28:00,10.9,5.1,30.32,East,84,2.0,3.0,77,0.00,,,0.00,vanprod-2.5-rc3,2013-01-20 09:28:00,
2013-01-20 02:33:00,10.9,5.1,30.32,East,84,0.0,0.0,77,0.00,,,0.00,vanprod-2.5-rc3,2013-01-20 09:33:00,
2013-01-20 02:38:00,11.1,5.6,30.32,East,84,0.0,0.0,78,0.00,,,0.00,vanprod-2.5-rc3,2013-01-20 09:38:00,
2013-01-20 02:43:00,11.1,5.6,30.32,East,84,0.0,0.0,78,0.00,,,0.00,vanprod-2.5-rc3,2013-01-20 09:43:00,
2013-01-20 02:48:00,10.8,5.0,30.32,East,84,0.0,0.0,77,0.00,,,0.00,vanprod-2.5-rc3,2013-01-20 09:48:00,
2013-01-20 02:53:00,10.5,4.7,30.32,East,84,0.0,0.0,77,0.00,,,0.00,vanprod-2.5-rc3,2013-01-20 09:53:00,
2013-01-20 02:58:00,10.5,5.0,30.32,East,84,4.0,4.0,78,0.00,,,0.00,vanprod-2.5-rc3,2013-01-20 09:58:00,
2013-01-20 03:03:00,10.4,4.9,30.31,East,83,3.0,3.0,78,0.00,,,0.00,vanprod-2.5-rc3,2013-01-20 10:03:00,
2013-01-20 03:08:00,10.2,4.7,30.31,East,84,3.0,3.0,78,0.00,,,0.00,vanprod-2.5-rc3,2013-01-20 10:08:00,
2013-01-20 03:13:00,10.2,5.0,30.31,East,81,0.0,0.0,79,0.00,,,0.00,vanprod-2.5-rc3,2013-01-20 10:13:00,
2013-01-20 03:18:00,10.2,5.0,30.31,East,81,0.0,0.0,79,0.00,,,0.00,vanprod-2.5-rc3,2013-01-20 10:18:00,
2013-01-20 03:23:00,10.1,4.9,30.31,East,81,0.0,0.0,79,0.00,,,0.00,vanprod-2.5-rc3,2013-01-20 10:23:00,
2013-01-20 03:28:00,10.1,4.9,30.31,East,81,0.0,0.0,79,0.00,,,0.00,vanprod-2.5-rc3,2013-01-20 10:28:00,
2013-01-20 03:33:00,9.9,4.4,30.31,East,80,0.0,0.0,78,0.00,,,0.00,vanprod-2.5-rc3,2013-01-20 10:33:00,
2013-01-20 03:38:00,9.8,4.3,30.31,East,80,0.0,0.0,78,0.00,,,0.00,vanprod-2.5-rc3,2013-01-20 10:38:00,
2013-01-20 03:43:00,9.6,4.1,30.31,ENE,65,3.0,4.0,78,0.00,,,0.00,vanprod-2.5-rc3,2013-01-20 10:43:00,
2013-01-20 03:48:00,9.9,4.7,30.30,ENE,61,2.0,2.0,79,0.00,,,0.00,vanprod-2.5-rc3,2013-01-20 10:48:00,
2013-01-20 03:53:00,9.9,4.4,30.30,ENE,63,0.0,0.0,78,0.00,,,0.00,vanprod-2.5-rc3,2013-01-20 10:53:00,
2013-01-20 03:58:00,9.7,4.2,30.30,ENE,63,0.0,0.0,78,0.00,,,0.00,vanprod-2.5-rc3,2013-01-20 10:58:00,
2013-01-20 04:03:00,9.3,3.8,30.32,ENE,63,0.0,0.0,78,0.00,,,0.00,vanprod-2.5-rc3,2013-01-20 11:03:00,
2013-01-20 04:08:00,9.0,3.6,30.31,ENE,63,0.0,0.0,78,0.00,,,0.00,vanprod-2.5-rc3,2013-01-20 11:08:00,
2013-01-20 04:13:00,8.5,3.1,30.31,ENE,63,0.0,0.0,78,0.00,,,0.00,vanprod-2.5-rc3,2013-01-20 11:13:00,
2013-01-20 04:18:00,8.4,3.2,30.31,ENE,67,0.0,0.0,79,0.00,,,0.00,vanprod-2.5-rc3,2013-01-20 11:18:00,
2013-01-20 04:23:00,8.6,3.7,30.31,ENE,70,3.0,3.0,80,0.00,,,0.00,vanprod-2.5-rc3,2013-01-20 11:23:00,
2013-01-20 04:28:00,8.7,3.8,30.31,ENE,77,1.0,0.0,80,0.00,,,0.00,vanprod-2.5-rc3,2013-01-20 11:28:00,
2013-01-20 04:33:00,9.0,4.1,30.31,East,95,0.0,0.0,80,0.00,,,0.00,vanprod-2.5-rc3,2013-01-20 11:33:00,
2013-01-20 04:38:00,9.1,4.2,30.31,ESE,111,0.0,0.0,80,0.00,,,0.00,vanprod-2.5-rc3,2013-01-20 11:38:00,
2013-01-20 04:43:00,9.1,4.2,30.31,ESE,111,0.0,0.0,80,0.00,,,0.00,vanprod-2.5-rc3,2013-01-20 11:43:00,
2013-01-20 04:48:00,9.2,4.3,30.31,ESE,111,0.0,0.0,80,0.00,,,0.00,vanprod-2.5-rc3,2013-01-20 11:48:00,
2013-01-20 04:53:00,9.3,4.7,30.31,ESE,111,0.0,0.0,81,0.00,,,0.00,vanprod-2.5-rc3,2013-01-20 11:53:00,
2013-01-20 04:58:00,9.5,4.9,30.30,ESE,111,0.0,0.0,81,0.00,,,0.00,vanprod-2.5-rc3,2013-01-20 11:58:00,
2013-01-20 05:03:00,9.4,4.5,30.32,ESE,111,0.0,0.0,80,0.00,,,0.00,vanprod-2.5-rc3,2013-01-20 12:03:00,
2013-01-20 05:08:00,9.1,3.9,30.32,ESE,112,0.0,0.0,79,0.00,,,0.00,vanprod-2.5-rc3,2013-01-20 12:08:00,
2013-01-20 05:13:00,8.7,3.5,30.32,ESE,112,0.0,0.0,79,0.00,,,0.00,vanprod-2.5-rc3,2013-01-20 12:13:00,
2013-01-20 05:18:00,8.6,3.4,30.32,ESE,112,0.0,0.0,79,0.00,,,0.00,vanprod-2.5-rc3,2013-01-20 12:18:00,
2013-01-20 05:23:00,8.5,3.6,30.32,ESE,111,0.0,0.0,80,0.00,,,0.00,vanprod-2.5-rc3,2013-01-20 12:23:00,
2013-01-20 05:28:00,8.3,3.4,30.32,ESE,110,0.0,0.0,80,0.00,,,0.00,vanprod-2.5-rc3,2013-01-20 12:28:00,
2013-01-20 05:33:00,8.1,2.9,30.32,ESE,109,0.0,0.0,79,0.00,,,0.00,vanprod-2.5-rc3,2013-01-20 12:33:00,
2013-01-20 05:38:00,8.1,3.2,30.32,ESE,109,0.0,0.0,80,0.00,,,0.00,vanprod-2.5-rc3,2013-01-20 12:38:00,
2013-01-20 05:43:00,7.7,2.6,30.32,ESE,109,0.0,0.0,79,0.00,,,0.00,vanprod-2.5-rc3,2013-01-20 12:43:00,
2013-01-20 05:48:00,7.4,2.3,30.32,ESE,109,0.0,0.0,79,0.00,,,0.00,vanprod-2.5-rc3,2013-01-20 12:48:00,
2013-01-20 05:53:00,7.3,2.4,30.32,ESE,109,0.0,0.0,80,0.00,,,0.00,vanprod-2.5-rc3,2013-01-20 12:53:00,
2013-01-20 05:58:00,7.2,2.3,30.32,ESE,110,0.0,0.0,80,0.00,,,0.00,vanprod-2.5-rc3,2013-01-20 12:58:00,
2013-01-20 06:03:00,7.1,2.2,30.31,ESE,110,0.0,0.0,80,0.00,,,0.00,vanprod-2.5-rc3,2013-01-20 13:03:00,
2013-01-20 06:08:00,7.1,2.5,30.31,ESE,110,0.0,0.0,81,0.00,,,0.00,vanprod-2.5-rc3,2013-01-20 13:08:00,
2013-01-20 06:13:00,7.1,2.5,30.31,ESE,110,0.0,0.0,81,0.00,,,0.00,vanprod-2.5-rc3,2013-01-20 13:13:00,
2013-01-20 06:18:00,7.2,2.6,30.31,ESE,110,0.0,0.0,81,0.00,,,0.00,vanprod-2.5-rc3,2013-01-20 13:18:00,
2013-01-20 06:23:00,6.9,2.3,30.31,ESE,108,0.0,0.0,81,0.00,,,0.00,vanprod-2.5-rc3,2013-01-20 13:23:00,
2013-01-20 06:28:00,6.4,1.6,30.32,East,81,3.0,4.0,80,0.00,,,0.00,vanprod-2.5-rc3,2013-01-20 13:28:00,
2013-01-20 06:33:00,6.2,1.4,30.32,ENE,72,1.0,3.0,80,0.00,,,0.00,vanprod-2.5-rc3,2013-01-20 13:33:00,
2013-01-20 06:38:00,6.6,2.0,30.31,East,96,5.0,5.0,81,0.00,,,0.00,vanprod-2.5-rc3,2013-01-20 13:38:00,
2013-01-20 06:43:00,7.6,3.5,30.31,ESE,114,2.0,2.0,83,0.00,,,0.00,vanprod-2.5-rc3,2013-01-20 13:43:00,
2013-01-20 06:48:00,8.4,4.0,30.31,SSE,164,0.0,0.0,82,0.00,,,0.00,vanprod-2.5-rc3,2013-01-20 13:48:00,
2013-01-20 06:53:00,8.4,3.8,30.31,SSE,162,0.0,0.0,81,0.00,,,0.00,vanprod-2.5-rc3,2013-01-20 13:53:00,
2013-01-20 06:58:00,8.4,3.8,30.31,ESE,119,3.0,3.0,81,0.00,,,0.00,vanprod-2.5-rc3,2013-01-20 13:58:00,
2013-01-20 07:03:00,8.7,4.1,30.33,ESE,110,0.0,0.0,81,0.00,,,0.00,vanprod-2.5-rc3,2013-01-20 14:03:00,
2013-01-20 07:08:00,8.7,3.8,30.33,ENE,71,4.0,5.0,80,0.00,,,0.00,vanprod-2.5-rc3,2013-01-20 14:08:00,
2013-01-20 07:13:00,8.6,3.7,30.33,ENE,67,2.0,3.0,80,0.00,,,0.00,vanprod-2.5-rc3,2013-01-20 14:13:00,
2013-01-20 07:18:00,8.8,3.9,30.33,ENE,65,2.0,2.0,80,0.00,,,0.00,vanprod-2.5-rc3,2013-01-20 14:18:00,
2013-01-20 07:23:00,8.6,3.4,30.34,ENE,65,0.0,0.0,79,0.00,,,0.00,vanprod-2.5-rc3,2013-01-20 14:23:00,
2013-01-20 07:28:00,8.0,2.6,30.33,ENE,65,0.0,0.0,78,0.00,,,0.00,vanprod-2.5-rc3,2013-01-20 14:28:00,
2013-01-20 07:33:00,7.2,1.8,30.32,ENE,65,0.0,0.0,78,0.00,,,0.00,vanprod-2.5-rc3,2013-01-20 14:33:00,
2013-01-20 07:38:00,6.8,1.7,30.33,ENE,65,0.0,0.0,79,0.00,,,0.00,vanprod-2.5-rc3,2013-01-20 14:38:00,
2013-01-20 07:43:00,6.4,1.3,30.33,ENE,65,1.0,3.0,79,0.00,,,0.00,vanprod-2.5-rc3,2013-01-20 14:43:00,
2013-01-20 07:48:00,6.2,1.1,30.33,ENE,65,2.0,3.0,79,0.00,,,0.00,vanprod-2.5-rc3,2013-01-20 14:48:00,
2013-01-20 07:53:00,6.3,1.5,30.32,ENE,70,3.0,4.0,80,0.00,,,0.00,vanprod-2.5-rc3,2013-01-20 14:53:00,
2013-01-20 07:58:00,6.4,1.6,30.32,ENE,75,4.0,5.0,80,0.00,,,0.00,vanprod-2.5-rc3,2013-01-20 14:58:00,
2013-01-20 08:03:00,6.6,1.8,30.32,East,86,4.0,4.0,80,0.00,,,0.00,vanprod-2.5-rc3,2013-01-20 15:03:00,
2013-01-20 08:08:00,6.9,2.3,30.32,East,99,2.0,2.0,81,0.00,,,0.00,vanprod-2.5-rc3,2013-01-20 15:08:00,
2013-01-20 08:13:00,7.3,2.7,30.32,East,96,4.0,4.0,81,0.00,,,0.00,vanprod-2.5-rc3,2013-01-20 15:13:00,
2013-01-20 08:18:00,7.6,3.0,30.33,East,96,0.0,0.0,81,0.00,,,0.00,vanprod-2.5-rc3,2013-01-20 15:18:00,
2013-01-20 08:23:00,8.1,3.5,30.33,East,96,0.0,0.0,81,0.00,,,0.00,vanprod-2.5-rc3,2013-01-20 15:23:00,
2013-01-20 08:28:00,8.4,3.8,30.33,East,90,3.0,3.0,81,0.00,,,0.00,vanprod-2.5-rc3,2013-01-20 15:28:00,
2013-01-20 08:33:00,8.7,4.1,30.34,East,82,2.0,3.0,81,0.00,,,0.00,vanprod-2.5-rc3,2013-01-20 15:33:00,
2013-01-20 08:38:00,9.5,4.9,30.34,ENE,63,5.0,5.0,81,0.00,,,0.00,vanprod-2.5-rc3,2013-01-20 15:38:00,
2013-01-20 08:43:00,10.2,5.3,30.34,ENE,73,4.0,5.0,80,0.00,,,0.00,vanprod-2.5-rc3,2013-01-20 15:43:00,
2013-01-20 08:48:00,10.7,5.5,30.34,East,100,0.0,0.0,79,0.00,,,0.00,vanprod-2.5-rc3,2013-01-20 15:48:00,
2013-01-20 08:53:00,11.0,5.8,30.35,ESE,104,0.0,0.0,79,0.00,,,0.00,vanprod-2.5-rc3,2013-01-20 15:53:00,
2013-01-20 08:58:00,11.4,6.2,30.35,ESE,103,0.0,0.0,79,0.00,,,0.00,vanprod-2.5-rc3,2013-01-20 15:58:00,
2013-01-20 09:03:00,12.4,7.1,30.34,ENE,73,5.0,6.0,79,0.00,,,0.00,vanprod-2.5-rc3,2013-01-20 16:03:00,
2013-01-20 09:08:00,13.2,7.6,30.35,East,86,4.0,4.0,78,0.00,,,0.00,vanprod-2.5-rc3,2013-01-20 16:08:00,
2013-01-20 09:13:00,13.9,8.0,30.35,ENE,67,4.0,6.0,77,0.00,,,0.00,vanprod-2.5-rc3,2013-01-20 16:13:00,
2013-01-20 09:18:00,14.5,8.3,30.34,ENE,78,4.0,4.0,76,0.00,,,0.00,vanprod-2.5-rc3,2013-01-20 16:18:00,
2013-01-20 09:23:00,14.8,8.0,30.34,East,93,3.0,0.0,74,0.00,,,0.00,vanprod-2.5-rc3,2013-01-20 16:23:00,
2013-01-20 09:28:00,14.9,7.8,30.34,East,92,2.0,2.0,73,0.00,,,0.00,vanprod-2.5-rc3,2013-01-20 16:28:00,
2013-01-20 09:33:00,14.8,7.7,30.34,East,89,3.0,4.0,73,0.00,,,0.00,vanprod-2.5-rc3,2013-01-20 16:33:00,
2013-01-20 09:38:00,14.9,7.8,30.34,East,79,5.0,5.0,73,0.00,,,0.00,vanprod-2.5-rc3,2013-01-20 16:38:00,
2013-01-20 09:43:00,15.4,8.6,30.33,ESE,104,2.0,3.0,74,0.00,,,0.00,vanprod-2.5-rc3,2013-01-20 16:43:00,
2013-01-20 09:48:00,15.1,7.4,30.34,SSW,208,4.0,4.0,71,0.00,,,0.00,vanprod-2.5-rc3,2013-01-20 16:48:00,
2013-01-20 09:53:00,14.3,6.3,30.35,SSW,207,0.0,0.0,70,0.00,,,0.00,vanprod-2.5-rc3,2013-01-20 16:53:00,
2013-01-20 09:58:00,13.7,6.4,30.35,SSW,207,0.0,0.0,72,0.00,,,0.00,vanprod-2.5-rc3,2013-01-20 16:58:00,
2013-01-20 10:03:00,13.7,7.0,30.35,SSW,207,0.0,0.0,74,0.00,,,0.00,vanprod-2.5-rc3,2013-01-20 17:03:00,
2013-01-20 10:08:00,13.9,7.5,30.35,SSW,207,0.0,0.0,75,0.00,,,0.00,vanprod-2.5-rc3,2013-01-20 17:08:00,
2013-01-20 10:13:00,15.0,8.2,30.33,NNE,20,1.0,3.0,74,0.00,,,0.00,vanprod-2.5-rc3,2013-01-20 17:13:00,
2013-01-20 10:18:00,16.6,8.9,30.34,NNE,30,5.0,5.0,71,0.00,,,0.00,vanprod-2.5-rc3,2013-01-20 17:18:00,
2013-01-20 10:23:00,17.5,8.8,30.34,NNE,23,5.0,6.0,68,0.00,,,0.00,vanprod-2.5-rc3,2013-01-20 17:23:00,
2013-01-20 10:28:00,17.9,9.1,30.34,NE,48,6.0,6.0,68,0.00,,,0.00,vanprod-2.5-rc3,2013-01-20 17:28:00,
2013-01-20 10:33:00,18.2,9.4,30.34,ENE,63,5.0,5.0,68,0.00,,,0.00,vanprod-2.5-rc3,2013-01-20 17:33:00,
2013-01-20 10:38:00,18.9,10.4,30.32,ENE,61,4.0,4.0,69,0.00,,,0.00,vanprod-2.5-rc3,2013-01-20 17:38:00,
2013-01-20 10:43:00,19.5,10.7,30.32,ENE,60,4.0,4.0,68,0.00,,,0.00,vanprod-2.5-rc3,2013-01-20 17:43:00,
2013-01-20 10:48:00,19.7,9.9,30.32,NE,36,0.0,0.0,65,0.00,,,0.00,vanprod-2.5-rc3,2013-01-20 17:48:00,
2013-01-20 10:53:00,19.9,9.4,30.32,NE,35,1.0,3.0,63,0.00,,,0.00,vanprod-2.5-rc3,2013-01-20 17:53:00,
2013-01-20 10:58:00,20.0,9.1,30.31,NE,35,0.0,0.0,62,0.00,,,0.00,vanprod-2.5-rc3,2013-01-20 17:58:00,
2013-01-20 11:03:00,20.1,10.2,30.32,South,188,1.0,1.0,65,0.00,,,0.00,vanprod-2.5-rc3,2013-01-20 18:03:00,
2013-01-20 11:08:00,20.2,10.3,30.32,South,188,0.0,0.0,65,0.00,,,0.00,vanprod-2.5-rc3,2013-01-20 18:08:00,
2013-01-20 11:13:00,20.4,9.8,30.31,South,188,0.0,0.0,63,0.00,,,0.00,vanprod-2.5-rc3,2013-01-20 18:13:00,
2013-01-20 11:18:00,20.7,10.1,30.32,South,188,0.0,0.0,63,0.00,,,0.00,vanprod-2.5-rc3,2013-01-20 18:18:00,
2013-01-20 11:23:00,21.0,10.0,30.31,South,188,0.0,0.0,62,0.00,,,0.00,vanprod-2.5-rc3,2013-01-20 18:23:00,
2013-01-20 11:28:00,21.2,9.9,30.31,South,188,0.0,0.0,61,0.00,,,0.00,vanprod-2.5-rc3,2013-01-20 18:28:00,
2013-01-20 11:33:00,21.4,10.1,30.31,South,188,0.0,0.0,61,0.00,,,0.00,vanprod-2.5-rc3,2013-01-20 18:33:00,
2013-01-20 11:38:00,21.8,10.8,30.30,South,188,0.0,0.0,62,0.00,,,0.00,vanprod-2.5-rc3,2013-01-20 18:38:00,
2013-01-20 11:43:00,22.2,10.8,30.29,South,188,1.0,1.0,61,0.00,,,0.00,vanprod-2.5-rc3,2013-01-20 18:43:00,
2013-01-20 11:48:00,22.6,10.8,30.28,South,188,0.0,0.0,60,0.00,,,0.00,vanprod-2.5-rc3,2013-01-20 18:48:00,
2013-01-20 11:53:00,22.9,11.1,30.27,South,188,0.0,0.0,60,0.00,,,0.00,vanprod-2.5-rc3,2013-01-20 18:53:00,
2013-01-20 11:58:00,23.1,10.9,30.27,South,188,0.0,0.0,59,0.00,,,0.00,vanprod-2.5-rc3,2013-01-20 18:58:00,
2013-01-20 12:03:00,23.6,11.8,30.27,ENE,74,4.0,4.0,60,0.00,,,0.00,vanprod-2.5-rc3,2013-01-20 19:03:00,
2013-01-20 12:08:00,24.6,12.7,30.27,East,85,1.0,0.0,60,0.00,,,0.00,vanprod-2.5-rc3,2013-01-20 19:08:00,
2013-01-20 12:13:00,25.5,12.8,30.25,East,85,2.0,2.0,58,0.00,,,0.00,vanprod-2.5-rc3,2013-01-20 19:13:00,
2013-01-20 12:18:00,26.1,13.7,30.27,East,84,3.0,3.0,59,0.00,,,0.00,vanprod-2.5-rc3,2013-01-20 19:18:00,
2013-01-20 12:23:00,26.7,14.3,30.24,East,80,2.0,2.0,59,0.00,,,0.00,vanprod-2.5-rc3,2013-01-20 19:23:00,
2013-01-20 12:28:00,27.5,14.7,30.25,ENE,63,3.0,0.0,58,0.00,,,0.00,vanprod-2.5-rc3,2013-01-20 19:28:00,
2013-01-20 12:33:00,28.0,14.3,30.25,ENE,61,0.0,0.0,56,0.00,,,0.00,vanprod-2.5-rc3,2013-01-20 19:33:00,
2013-01-20 12:38:00,28.4,13.9,30.25,East,79,0.0,0.0,54,0.00,,,0.00,vanprod-2.5-rc3,2013-01-20 19:38:00,
2013-01-20 12:43:00,28.4,13.0,30.24,SE,129,1.0,0.0,52,0.00,,,0.00,vanprod-2.5-rc3,2013-01-20 19:43:00,
2013-01-20 12:48:00,28.1,13.2,30.24,SE,129,0.0,0.0,53,0.00,,,0.00,vanprod-2.5-rc3,2013-01-20 19:48:00,
2013-01-20 12:53:00,27.5,13.1,30.23,SE,130,0.0,0.0,54,0.00,,,0.00,vanprod-2.5-rc3,2013-01-20 19:53:00,
2013-01-20 12:58:00,27.2,12.3,30.22,SE,130,0.0,0.0,53,0.00,,,0.00,vanprod-2.5-rc3,2013-01-20 19:58:00,
2013-01-20 13:03:00,27.4,13.4,30.24,SE,130,0.0,0.0,55,0.00,,,0.00,vanprod-2.5-rc3,2013-01-20 20:03:00,
2013-01-20 13:08:00,27.5,13.1,30.24,SE,130,0.0,0.0,54,0.00,,,0.00,vanprod-2.5-rc3,2013-01-20 20:08:00,
2013-01-20 13:13:00,27.7,13.2,30.24,SE,130,0.0,0.0,54,0.00,,,0.00,vanprod-2.5-rc3,2013-01-20 20:13:00,
2013-01-20 13:18:00,28.3,14.2,30.21,South,170,2.0,3.0,55,0.00,,,0.00,vanprod-2.5-rc3,2013-01-20 20:18:00,
2013-01-20 13:23:00,28.8,14.3,30.22,South,170,0.0,0.0,54,0.00,,,0.00,vanprod-2.5-rc3,2013-01-20 20:23:00,
2013-01-20 13:28:00,29.3,14.3,30.22,South,170,0.0,0.0,53,0.00,,,0.00,vanprod-2.5-rc3,2013-01-20 20:28:00,
2013-01-20 13:33:00,29.7,14.7,30.21,South,170,0.0,0.0,53,0.00,,,0.00,vanprod-2.5-rc3,2013-01-20 20:33:00,
2013-01-20 13:38:00,29.9,14.0,30.21,South,170,0.0,0.0,51,0.00,,,0.00,vanprod-2.5-rc3,2013-01-20 20:38:00,
2013-01-20 13:43:00,30.3,13.9,30.21,South,170,0.0,0.0,50,0.00,,,0.00,vanprod-2.5-rc3,2013-01-20 20:43:00,
2013-01-20 13:48:00,30.6,14.6,30.22,South,170,0.0,0.0,51,0.00,,,0.00,vanprod-2.5-rc3,2013-01-20 20:48:00,
2013-01-20 13:53:00,30.8,13.9,30.22,South,170,0.0,0.0,49,0.00,,,0.00,vanprod-2.5-rc3,2013-01-20 20:53:00,
2013-01-20 13:58:00,31.2,13.8,30.22,South,170,0.0,0.0,48,0.00,,,0.00,vanprod-2.5-rc3,2013-01-20 20:58:00,
2013-01-20 14:03:00,31.5,14.1,30.22,South,170,0.0,0.0,48,0.00,,,0.00,vanprod-2.5-rc3,2013-01-20 21:03:00,
2013-01-20 14:08:00,31.7,14.7,30.22,South,170,0.0,0.0,49,0.00,,,0.00,vanprod-2.5-rc3,2013-01-20 21:08:00,
2013-01-20 14:13:00,31.9,14.0,30.22,South,170,0.0,0.0,47,0.00,,,0.00,vanprod-2.5-rc3,2013-01-20 21:13:00,
2013-01-20 14:18:00,31.9,15.4,30.22,South,170,0.0,0.0,50,0.00,,,0.00,vanprod-2.5-rc3,2013-01-20 21:18:00,
2013-01-20 14:23:00,31.8,14.8,30.22,South,171,0.0,0.0,49,0.00,,,0.00,vanprod-2.5-rc3,2013-01-20 21:23:00,
2013-01-20 14:28:00,31.7,14.3,30.21,SSW,197,3.0,4.0,48,0.00,,,0.00,vanprod-2.5-rc3,2013-01-20 21:28:00,
2013-01-20 14:33:00,31.7,15.2,30.21,SSW,213,3.0,4.0,50,0.00,,,0.00,vanprod-2.5-rc3,2013-01-20 21:33:00,
2013-01-20 14:38:00,31.6,14.6,30.21,SSW,205,3.0,3.0,49,0.00,,,0.00,vanprod-2.5-rc3,2013-01-20 21:38:00,
2013-01-20 14:43:00,31.6,13.7,30.20,SSW,203,0.0,0.0,47,0.00,,,0.00,vanprod-2.5-rc3,2013-01-20 21:43:00,
2013-01-20 14:48:00,31.7,13.3,30.20,SSW,203,0.0,0.0,46,0.00,,,0.00,vanprod-2.5-rc3,2013-01-20 21:48:00,
2013-01-20 14:53:00,31.6,13.2,30.20,SSW,203,0.0,0.0,46,0.00,,,0.00,vanprod-2.5-rc3,2013-01-20 21:53:00,
2013-01-20 14:58:00,31.3,14.4,30.21,SSW,203,0.0,0.0,49,0.00,,,0.00,vanprod-2.5-rc3,2013-01-20 21:58:00,
2013-01-20 15:03:00,31.2,12.8,30.20,SSW,203,0.0,0.0,46,0.00,,,0.00,vanprod-2.5-rc3,2013-01-20 22:03:00,
2013-01-20 15:08:00,31.4,12.5,30.20,SSW,203,0.0,0.0,45,0.00,,,0.00,vanprod-2.5-rc3,2013-01-20 22:08:00,
2013-01-20 15:13:00,31.6,12.7,30.20,SSW,203,0.0,0.0,45,0.00,,,0.00,vanprod-2.5-rc3,2013-01-20 22:13:00,
2013-01-20 15:18:00,31.9,13.0,30.20,SSW,203,1.0,3.0,45,0.00,,,0.00,vanprod-2.5-rc3,2013-01-20 22:18:00,
2013-01-20 15:23:00,32.1,14.2,30.20,SSW,204,2.0,3.0,47,0.00,,,0.00,vanprod-2.5-rc3,2013-01-20 22:23:00,
2013-01-20 15:28:00,32.2,14.2,30.20,SSW,205,3.0,3.0,47,0.00,,,0.00,vanprod-2.5-rc3,2013-01-20 22:28:00,
2013-01-20 15:33:00,32.2,13.8,30.19,SSW,213,2.0,2.0,46,0.00,,,0.00,vanprod-2.5-rc3,2013-01-20 22:33:00,
2013-01-20 15:38:00,32.1,12.7,30.19,SW,214,2.0,2.0,44,0.00,,,0.00,vanprod-2.5-rc3,2013-01-20 22:38:00,
2013-01-20 15:43:00,32.1,13.2,30.19,SW,214,0.0,0.0,45,0.00,,,0.00,vanprod-2.5-rc3,2013-01-20 22:43:00,
2013-01-20 15:48:00,32.3,13.4,30.20,SW,214,0.0,0.0,45,0.00,,,0.00,vanprod-2.5-rc3,2013-01-20 22:48:00,
2013-01-20 15:53:00,32.3,13.9,30.20,SW,214,0.0,0.0,46,0.00,,,0.00,vanprod-2.5-rc3,2013-01-20 22:53:00,
2013-01-20 15:58:00,32.4,14.4,30.20,SW,214,0.0,0.0,47,0.00,,,0.00,vanprod-2.5-rc3,2013-01-20 22:58:00,
2013-01-20 16:03:00,32.4,13.9,30.20,SW,214,0.0,0.0,46,0.00,,,0.00,vanprod-2.5-rc3,2013-01-20 23:03:00,
2013-01-20 16:08:00,32.5,14.0,30.20,SW,214,0.0,0.0,46,0.00,,,0.00,vanprod-2.5-rc3,2013-01-20 23:08:00,
2013-01-20 16:13:00,32.6,14.6,30.20,SW,214,0.0,0.0,47,0.00,,,0.00,vanprod-2.5-rc3,2013-01-20 23:13:00,
2013-01-20 16:18:00,32.5,14.5,30.20,SSW,213,0.0,0.0,47,0.00,,,0.00,vanprod-2.5-rc3,2013-01-20 23:18:00,
2013-01-20 16:23:00,32.2,14.7,30.20,SSW,213,0.0,0.0,48,0.00,,,0.00,vanprod-2.5-rc3,2013-01-20 23:23:00,
2013-01-20 16:28:00,32.0,14.1,30.20,SSW,213,0.0,0.0,47,0.00,,,0.00,vanprod-2.5-rc3,2013-01-20 23:28:00,
2013-01-20 16:33:00,32.0,13.6,30.20,SSW,213,0.0,0.0,46,0.00,,,0.00,vanprod-2.5-rc3,2013-01-20 23:33:00,
2013-01-20 16:38:00,32.0,13.6,30.20,SSW,213,0.0,0.0,46,0.00,,,0.00,vanprod-2.5-rc3,2013-01-20 23:38:00,
2013-01-20 16:43:00,32.0,13.6,30.20,SSW,213,0.0,0.0,46,0.00,,,0.00,vanprod-2.5-rc3,2013-01-20 23:43:00,
2013-01-20 16:48:00,31.9,13.5,30.20,SSW,213,0.0,0.0,46,0.00,,,0.00,vanprod-2.5-rc3,2013-01-20 23:48:00,
2013-01-20 16:53:00,31.7,13.8,30.20,SSW,213,0.0,0.0,47,0.00,,,0.00,vanprod-2.5-rc3,2013-01-20 23:53:00,
2013-01-20 16:58:00,31.3,13.4,30.19,SSW,213,0.0,0.0,47,0.00,,,0.00,vanprod-2.5-rc3,2013-01-20 23:58:00,
2013-01-20 17:03:00,30.6,13.3,30.21,SSW,213,0.0,0.0,48,0.00,,,0.00,vanprod-2.5-rc3,2013-01-21 00:03:00,
2013-01-20 17:08:00,29.4,13.1,30.20,SSW,213,0.0,0.0,50,0.00,,,0.00,vanprod-2.5-rc3,2013-01-21 00:08:00,
2013-01-20 17:13:00,28.5,13.1,30.20,SSW,213,0.0,0.0,52,0.00,,,0.00,vanprod-2.5-rc3,2013-01-21 00:13:00,
2013-01-20 17:18:00,28.1,12.3,30.19,SSW,213,0.0,0.0,51,0.00,,,0.00,vanprod-2.5-rc3,2013-01-21 00:18:00,
2013-01-20 17:23:00,27.8,12.0,30.19,SSW,213,0.0,0.0,51,0.00,,,0.00,vanprod-2.5-rc3,2013-01-21 00:23:00,
2013-01-20 17:28:00,26.5,11.3,30.19,SSW,212,0.0,0.0,52,0.00,,,0.00,vanprod-2.5-rc3,2013-01-21 00:28:00,
2013-01-20 17:33:00,24.8,10.9,30.21,East,92,3.0,3.0,55,0.00,,,0.00,vanprod-2.5-rc3,2013-01-21 00:33:00,
2013-01-20 17:38:00,23.6,10.6,30.20,East,92,1.0,2.0,57,0.00,,,0.00,vanprod-2.5-rc3,2013-01-21 00:38:00,
2013-01-20 17:43:00,23.3,11.5,30.20,East,92,0.0,0.0,60,0.00,,,0.00,vanprod-2.5-rc3,2013-01-21 00:43:00,
2013-01-20 17:48:00,23.4,11.6,30.20,East,92,0.0,0.0,60,0.00,,,0.00,vanprod-2.5-rc3,2013-01-21 00:48:00,
2013-01-20 17:53:00,22.9,10.7,30.20,East,92,0.0,0.0,59,0.00,,,0.00,vanprod-2.5-rc3,2013-01-21 00:53:00,
2013-01-20 17:58:00,22.5,10.7,30.21,East,91,2.0,4.0,60,0.00,,,0.00,vanprod-2.5-rc3,2013-01-21 00:58:00,
2013-01-20 18:03:00,21.8,10.4,30.21,East,90,2.0,2.0,61,0.00,,,0.00,vanprod-2.5-rc3,2013-01-21 01:03:00,
2013-01-20 18:08:00,21.2,10.2,30.21,East,90,3.0,5.0,62,0.00,,,0.00,vanprod-2.5-rc3,2013-01-21 01:08:00,
2013-01-20 18:13:00,20.8,10.2,30.21,East,88,4.0,5.0,63,0.00,,,0.00,vanprod-2.5-rc3,2013-01-21 01:13:00,
2013-01-20 18:18:00,20.5,10.3,30.21,East,88,4.0,5.0,64,0.00,,,0.00,vanprod-2.5-rc3,2013-01-21 01:18:00,
2013-01-20 18:23:00,20.2,10.0,30.22,East,87,4.0,4.0,64,0.00,,,0.00,vanprod-2.5-rc3,2013-01-21 01:23:00,
2013-01-20 18:28:00,19.9,9.7,30.23,East,86,4.0,5.0,64,0.00,,,0.00,vanprod-2.5-rc3,2013-01-21 01:28:00,
2013-01-20 18:33:00,19.7,9.9,30.23,East,86,3.0,4.0,65,0.00,,,0.00,vanprod-2.5-rc3,2013-01-21 01:33:00,
2013-01-20 18:38:00,19.7,10.2,30.23,East,86,3.0,4.0,66,0.00,,,0.00,vanprod-2.5-rc3,2013-01-21 01:38:00,
2013-01-20 18:43:00,19.7,9.9,30.23,East,86,0.0,0.0,65,0.00,,,0.00,vanprod-2.5-rc3,2013-01-21 01:43:00,
2013-01-20 18:48:00,19.7,10.2,30.23,East,86,0.0,0.0,66,0.00,,,0.00,vanprod-2.5-rc3,2013-01-21 01:48:00,
2013-01-20 18:53:00,19.8,10.3,30.24,East,86,0.0,0.0,66,0.00,,,0.00,vanprod-2.5-rc3,2013-01-21 01:53:00,
2013-01-20 18:58:00,19.8,10.0,30.23,East,86,0.0,0.0,65,0.00,,,0.00,vanprod-2.5-rc3,2013-01-21 01:58:00,
2013-01-20 19:03:00,19.8,10.0,30.23,East,86,0.0,0.0,65,0.00,,,0.00,vanprod-2.5-rc3,2013-01-21 02:03:00,
2013-01-20 19:08:00,19.7,9.5,30.23,East,86,0.0,0.0,64,0.00,,,0.00,vanprod-2.5-rc3,2013-01-21 02:08:00,
2013-01-20 19:13:00,19.3,9.1,30.23,East,85,3.0,5.0,64,0.00,,,0.00,vanprod-2.5-rc3,2013-01-21 02:13:00,
2013-01-20 19:18:00,18.9,9.4,30.23,East,84,4.0,5.0,66,0.00,,,0.00,vanprod-2.5-rc3,2013-01-21 02:18:00,
2013-01-20 19:23:00,18.8,9.7,30.23,East,84,2.0,2.0,67,0.00,,,0.00,vanprod-2.5-rc3,2013-01-21 02:23:00,
2013-01-20 19:28:00,18.5,9.1,30.23,East,84,1.0,0.0,66,0.00,,,0.00,vanprod-2.5-rc3,2013-01-21 02:28:00,
2013-01-20 19:33:00,18.2,9.1,30.22,East,84,0.0,0.0,67,0.00,,,0.00,vanprod-2.5-rc3,2013-01-21 02:33:00,
2013-01-20 19:38:00,18.3,9.8,30.22,East,84,0.0,0.0,69,0.00,,,0.00,vanprod-2.5-rc3,2013-01-21 02:38:00,
2013-01-20 19:43:00,18.2,8.8,30.22,East,84,0.0,0.0,66,0.00,,,0.00,vanprod-2.5-rc3,2013-01-21 02:43:00,
2013-01-20 19:48:00,18.0,8.6,30.22,East,84,0.0,0.0,66,0.00,,,0.00,vanprod-2.5-rc3,2013-01-21 02:48:00,
2013-01-20 19:53:00,17.6,8.2,30.23,East,84,4.0,5.0,66,0.00,,,0.00,vanprod-2.5-rc3,2013-01-21 02:53:00,
2013-01-20 19:58:00,17.5,9.1,30.23,East,84,0.0,0.0,69,0.00,,,0.00,vanprod-2.5-rc3,2013-01-21 02:58:00,
2013-01-20 20:03:00,17.9,9.1,30.23,East,84,0.0,0.0,68,0.00,,,0.00,vanprod-2.5-rc3,2013-01-21 03:03:00,
2013-01-20 20:08:00,17.6,8.2,30.24,East,84,0.0,0.0,66,0.00,,,0.00,vanprod-2.5-rc3,2013-01-21 03:08:00,
2013-01-20 20:13:00,17.6,8.9,30.24,East,84,0.0,0.0,68,0.00,,,0.00,vanprod-2.5-rc3,2013-01-21 03:13:00,
2013-01-20 20:18:00,17.9,9.8,30.24,East,84,0.0,0.0,70,0.00,,,0.00,vanprod-2.5-rc3,2013-01-21 03:18:00,
2013-01-20 20:23:00,18.1,9.3,30.24,East,84,0.0,0.0,68,0.00,,,0.00,vanprod-2.5-rc3,2013-01-21 03:23:00,
2013-01-20 20:28:00,17.9,8.1,30.24,East,84,3.0,4.0,65,0.00,,,0.00,vanprod-2.5-rc3,2013-01-21 03:28:00,
2013-01-20 20:33:00,17.5,8.1,30.24,East,84,0.0,0.0,66,0.00,,,0.00,vanprod-2.5-rc3,2013-01-21 03:33:00,
2013-01-20 20:38:00,17.2,7.8,30.25,East,81,0.0,0.0,66,0.00,,,0.00,vanprod-2.5-rc3,2013-01-21 03:38:00,
2013-01-20 20:43:00,17.0,7.6,30.25,East,81,1.0,0.0,66,0.00,,,0.00,vanprod-2.5-rc3,2013-01-21 03:43:00,
2013-01-20 20:48:00,17.0,7.6,30.26,East,81,2.0,4.0,66,0.00,,,0.00,vanprod-2.5-rc3,2013-01-21 03:48:00,
2013-01-20 20:53:00,16.8,7.8,30.26,East,81,0.0,0.0,67,0.00,,,0.00,vanprod-2.5-rc3,2013-01-21 03:53:00,
2013-01-20 20:58:00,16.5,7.1,30.26,East,81,0.0,0.0,66,0.00,,,0.00,vanprod-2.5-rc3,2013-01-21 03:58:00,
2013-01-20 21:03:00,16.2,7.2,30.25,East,81,0.0,0.0,67,0.00,,,0.00,vanprod-2.5-rc3,2013-01-21 04:03:00,
2013-01-20 21:08:00,16.1,7.1,30.25,East,81,2.0,2.0,67,0.00,,,0.00,vanprod-2.5-rc3,2013-01-21 04:08:00,
2013-01-20 21:13:00,16.0,7.0,30.25,East,81,0.0,0.0,67,0.00,,,0.00,vanprod-2.5-rc3,2013-01-21 04:13:00,
2013-01-20 21:18:00,16.0,7.6,30.25,East,81,0.0,0.0,69,0.00,,,0.00,vanprod-2.5-rc3,2013-01-21 04:18:00,
2013-01-20 21:23:00,16.2,8.2,30.25,East,82,0.0,0.0,70,0.00,,,0.00,vanprod-2.5-rc3,2013-01-21 04:23:00,
2013-01-20 21:28:00,16.5,8.1,30.25,East,82,0.0,0.0,69,0.00,,,0.00,vanprod-2.5-rc3,2013-01-21 04:28:00,
2013-01-20 21:33:00,16.7,8.0,30.25,East,82,0.0,0.0,68,0.00,,,0.00,vanprod-2.5-rc3,2013-01-21 04:33:00,
2013-01-20 21:38:00,16.5,7.1,30.25,East,82,2.0,2.0,66,0.00,,,0.00,vanprod-2.5-rc3,2013-01-21 04:38:00,
2013-01-20 21:43:00,16.5,7.5,30.25,East,82,0.0,0.0,67,0.00,,,0.00,vanprod-2.5-rc3,2013-01-21 04:43:00,
2013-01-20 21:48:00,16.6,8.2,30.25,East,82,0.0,0.0,69,0.00,,,0.00,vanprod-2.5-rc3,2013-01-21 04:48:00,
2013-01-20 21:53:00,16.7,8.6,30.26,East,82,0.0,0.0,70,0.00,,,0.00,vanprod-2.5-rc3,2013-01-21 04:53:00,
2013-01-20 21:58:00,16.5,7.8,30.26,East,82,0.0,0.0,68,0.00,,,0.00,vanprod-2.5-rc3,2013-01-21 04:58:00,
2013-01-20 22:00:00,16.5,8.1,30.26,East,82,0.0,0.0,69,0.00,,,0.00,vanprod-2.5-rc3,2013-01-21 05:00:00,
2013-01-20 22:02:00,16.5,7.8,30.27,East,82,0.0,0.0,68,0.00,,,0.00,vanprod-2.5-rc3,2013-01-21 05:02:00,
2013-01-20 22:03:00,16.5,7.8,30.27,East,82,0.0,0.0,68,0.00,,,0.00,vanprod-2.5-rc3,2013-01-21 05:03:00,
2013-01-20 22:08:00,16.5,8.1,30.27,East,82,0.0,0.0,69,0.00,,,0.00,vanprod-2.5-rc3,2013-01-21 05:08:00,
2013-01-20 22:13:00,16.4,7.4,30.27,East,82,0.0,0.0,67,0.00,,,0.00,vanprod-2.5-rc3,2013-01-21 05:13:00,
2013-01-20 22:18:00,15.8,6.8,30.27,East,82,0.0,0.0,67,0.00,,,0.00,vanprod-2.5-rc3,2013-01-21 05:18:00,
2013-01-20 22:23:00,15.5,7.2,30.27,East,82,0.0,0.0,69,0.00,,,0.00,vanprod-2.5-rc3,2013-01-21 05:23:00,
2013-01-20 22:28:00,15.3,7.3,30.26,East,82,0.0,0.0,70,0.00,,,0.00,vanprod-2.5-rc3,2013-01-21 05:28:00,
2013-01-20 22:33:00,15.2,7.5,30.26,East,82,0.0,0.0,71,0.00,,,0.00,vanprod-2.5-rc3,2013-01-21 05:33:00,
2013-01-20 22:38:00,14.8,6.5,30.26,ENE,78,0.0,0.0,69,0.00,,,0.00,vanprod-2.5-rc3,2013-01-21 05:38:00,
2013-01-20 22:43:00,15.0,7.3,30.26,ENE,78,0.0,0.0,71,0.00,,,0.00,vanprod-2.5-rc3,2013-01-21 05:43:00,
2013-01-20 22:48:00,14.9,6.9,30.26,ENE,78,0.0,0.0,70,0.00,,,0.00,vanprod-2.5-rc3,2013-01-21 05:48:00,
2013-01-20 22:53:00,14.8,6.8,30.26,SSE,160,0.0,0.0,70,0.00,,,0.00,vanprod-2.5-rc3,2013-01-21 05:53:00,
2013-01-20 22:58:00,14.4,6.7,30.26,SSE,160,0.0,0.0,71,0.00,,,0.00,vanprod-2.5-rc3,2013-01-21 05:58:00,
2013-01-20 23:03:00,14.0,6.3,30.27,SSE,159,0.0,0.0,71,0.00,,,0.00,vanprod-2.5-rc3,2013-01-21 06:03:00,
2013-01-20 23:08:00,13.9,6.6,30.27,SSE,159,0.0,0.0,72,0.00,,,0.00,vanprod-2.5-rc3,2013-01-21 06:08:00,
2013-01-20 23:13:00,13.9,6.2,30.27,SE,124,3.0,4.0,71,0.00,,,0.00,vanprod-2.5-rc3,2013-01-21 06:13:00,
2013-01-20 23:18:00,13.5,5.6,30.27,East,85,4.0,5.0,70,0.00,,,0.00,vanprod-2.5-rc3,2013-01-21 06:18:00,
2013-01-20 23:23:00,13.3,5.7,30.27,East,84,4.0,4.0,71,0.00,,,0.00,vanprod-2.5-rc3,2013-01-21 06:23:00,
2013-01-20 23:28:00,13.6,6.6,30.27,SE,127,0.0,0.0,73,0.00,,,0.00,vanprod-2.5-rc3,2013-01-21 06:28:00,
2013-01-20 23:33:00,13.8,6.5,30.27,SE,126,0.0,0.0,72,0.00,,,0.00,vanprod-2.5-rc3,2013-01-21 06:33:00,
2013-01-20 23:38:00,13.9,6.6,30.27,SE,126,0.0,0.0,72,0.00,,,0.00,vanprod-2.5-rc3,2013-01-21 06:38:00,
2013-01-20 23:43:00,13.9,6.2,30.27,ESE,110,1.0,3.0,71,0.00,,,0.00,vanprod-2.5-rc3,2013-01-21 06:43:00,
2013-01-20 23:48:00,13.6,6.0,30.27,East,89,4.0,5.0,71,0.00,,,0.00,vanprod-2.5-rc3,2013-01-21 06:48:00,
2013-01-20 23:53:00,13.6,6.3,30.27,East,88,4.0,4.0,72,0.00,,,0.00,vanprod-2.5-rc3,2013-01-21 06:53:00,
2013-01-20 23:58:00,13.7,6.7,30.27,ESE,109,1.0,0.0,73,0.00,,,0.00,vanprod-2.5-rc3,2013-01-21 06:58:00,